Dewpoint
60 57 51 48 49 46 41 39 27 38 32 24 15 13 20 23 21 22 20 20 21 22 24 24 24 24 22 24 24 23 23 21 19 16 28 46 57 56 59 62 60 62 59 63 67 69 71 71 72 72 72 72 71 71 70 70 70 70 70 70 70 70 70 69 69 69 69 69 69 69 69 69 69 68 68 68 68 68 69 69 69 69 69 69 69 69 70 69 69 68 68 68 68 67 67 66 65
50 48 48 49 45 42 40 36 29 24 27 19 19 8 18 16 20 20 18 19 23 24 26 25 25 25 24 25 25 24 23 23 22 21 23 41 51 55 62 61 57 59 60 64 67 67 69 71 71 72 72 72 72 71 70 70 70 70 70 70 70 70 70 69 69 69 69 69 69 69 69 69 69 69 68 68 69 69 69 69 69 69 69 69 69 69 69 69 68 68 67 67 67 66 65 65 64
49 48 46 44 40 38 32 34 25 20 19 15 10 13 17 16 17 19 18 20 22 25 25 25 28 27 25 24 23 22 19 23 24 23 25 47 36 51 61 62 58 60 60 64 66 66 68 69 70 72 72 71 72 71 71 70 70 70 70 70 70 70 70 70 69 69 69 69 69 69 69 69 69 69 69 69 68 68 68 68 69 69 69 69 68 69 68 67 67 67 66 66 65 65 64 64 63
55 51 46 42 36 39 31 32 32 24 19 14 12 16 15 17 17 18 19 22 24 25 25 24 26 27 23 21 22 24 22 22 24 26 23 37 47 54 58 60 61 60 61 65 65 66 67 68 70 72 72 72 72 71 71 71 71 70 70 70 70 70 70 70 69 69 69 69 69 69 70 69 69 69 68 68 68 67 67 68 69 69 69 68 68 68 67 67 66 65 65 65 64 64 63 63 62
54 47 44 42 36 33 35 30 23 19 17 17 11 12 16 16 18 18 20 22 25 25 25 25 25 28 26 25 25 18 18 19 25 28 27 49 50 54 57 61 57 59 63 64 64 66 66 69 70 71 72 72 71 71 71 71 71 70 70 70 70 70 70 70 69 69 70 69 69 69 70 69 69 69 68 67 67 67 67 67 68 69 69 68 68 67 67 66 65 65 64 63 63 63 62 61 60
47 43 47 42 33 38 31 23 24 22 21 18 13 14 14 14 15 21 22 23 24 25 25 25 23 23 22 23 24 21 24 18 28 25 35 50 52 55 57 62 54 57 62 64 64 65 65 68 70 71 72 72 71 71 72 71 71 70 70 70 70 70 70 70 70 69 70 69 69 69 70 70 69 68 67 66 66 66 66 66 67 67 67 67 67 66 65 64 63 63 63 63 63 62 61 59 58
46 40 35 36 33 32 27 22 18 17 17 14 14 15 15 14 17 21 22 22 26 26 26 24 25 24 22 23 24 25 24 36 24 40 54 54 57 56 59 58 56 54 62 63 63 65 67 68 70 71 72 72 71 71 71 71 71 70 70 70 70 70 70 70 70 70 69 69 69 70 70 70 69 68 67 66 66 66 65 65 64 65 65 65 65 65 64 63 63 62 62 61 62 61 59 58 57
49 45 38 28 34 28 26 24 21 19 18 18 14 15 14 17 21 23 22 22 22 23 26 25 25 23 20 23 19 27 33 32 36 44 47 46 59 62 62 56 57 55 60 62 64 65 68 67 70 70 71 72 71 71 72 71 71 70 70 70 70 70 70 70 70 69 69 69 69 70 70 69 68 67 67 66 65 65 64 64 63 64 64 64 64 64 63 62 60 61 60 60 60 60 58 57 56
41 35 41 36 26 34 24 17 18 16 17 16 16 24 32 23 24 24 22 23 24 26 24 25 25 22 20 20 20 26 26 33 38 46 46 51 55 62 59 58 56 57 60 61 63 65 69 67 69 70 70 71 71 71 71 71 70 70 70 70 70 70 70 70 70 70 70 69 69 70 69 69 68 67 66 65 64 64 64 63 64 64 64 63 63 63 61 59 59 60 60 60 59 58 57 57 56
37 36 34 30 31 24 21 20 18 19 18 15 15 13 15 18 21 23 23 22 23 22 24 24 24 22 21 20 20 21 33 38 40 43 46 47 51 57 58 60 59 60 61 62 63 65 66 67 67 68 70 70 71 71 71 71 70 70 70 70 70 70 70 70 70 70 70 69 69 70 69 68 68 67 66 65 64 63 63 63 64 63 62 63 62 60 61 58 59 59 59 59 59 58 57 57 56
34 27 39 30 27 22 23 15 15 14 15 16 17 18 22 23 22 22 22 21 22 23 23 24 22 23 22 21 21 38 38 38 32 36 45 46 53 55 56 60 61 62 61 64 64 64 64 68 65 67 68 69 69 70 70 70 70 70 70 70 70 70 70 70 70 70 70 69 69 69 69 68 67 66 66 64 63 63 63 63 63 63 62 62 61 59 59 59 58 59 59 59 58 58 57 56 55
36 29 33 27 22 20 15 16 16 14 14 15 18 21 23 23 22 21 20 20 18 18 19 24 21 22 19 18 23 34 34 32 39 48 47 51 48 56 57 59 61 63 63 64 64 64 64 66 68 66 65 66 68 69 69 70 70 70 70 70 70 70 70 70 70 70 70 69 69 69 68 68 68 66 65 64 62 62 61 61 62 61 60 59 59 59 59 59 58 59 59 59 58 58 57 56 55
36 36 27 23 18 19 15 20 18 19 19 17 17 22 22 22 20 19 18 17 15 16 16 23 22 23 18 16 18 22 28 41 41 43 48 44 47 55 59 57 61 63 62 65 64 64 65 64 66 67 67 64 64 66 67 68 69 69 70 70 70 70 70 70 70 70 70 69 69 69 68 67 67 66 65 63 61 61 60 60 59 60 60 59 60 60 59 59 58 59 60 58 57 57 56 55 54
32 35 31 25 28 19 16 19 18 21 16 17 17 23 23 21 21 19 18 16 16 15 22 24 22 22 20 20 21 20 40 45 42 45 45 47 51 54 59 59 62 62 63 64 63 64 65 64 64 65 67 68 69 66 64 66 67 68 69 69 69 69 70 70 70 70 69 69 68 68 66 66 66 67 65 63 61 61 61 59 59 59 59 59 59 59 59 59 59 59 59 58 57 57 56 55 53
33 35 28 29 21 23 20 19 16 16 13 14 22 20 20 23 21 21 19 18 16 23 24 24 23 21 11 17 12 33 35 45 47 46 50 49 52 52 58 59 61 63 62 63 62 62 63 64 62 63 65 66 66 67 67 68 64 66 67 68 68 68 68 69 69 68 67 67 66 65 64 64 63 63 64 63 63 63 62 62 60 59 60 59 59 59 59 59 59 59 59 58 57 56 55 54 52
40 32 29 28 22 23 20 24 19 23 17 17 21 22 18 17 22 20 20 21 21 26 26 19 24 19 17 16 17 31 37 43 45 48 48 50 54 54 57 59 58 60 62 62 61 63 63 63 63 63 62 63 65 65 65 66 65 63 65 66 66 66 67 67 67 66 65 64 64 63 61 63 61 61 59 61 61 62 61 59 61 59 59 59 59 59 58 59 59 59 58 58 57 56 55 53 51
38 37 31 28 22 21 23 23 21 16 16 14 21 21 18 16 22 22 23 22 21 21 20 23 21 24 21 20 20 31 38 43 46 45 48 48 50 50 53 55 56 57 60 61 61 62 63 63 63 63 63 62 62 61 62 65 66 63 62 63 63 64 64 65 65 63 61 60 60 58 59 63 62 61 60 60 58 60 58 57 61 60 59 60 59 59 58 58 59 59 58 58 56 55 53 51 50
37 30 27 24 21 20 20 21 16 18 20 17 16 18 19 17 19 22 23 22 22 21 21 21 21 22 22 22 24 34 40 39 41 42 39 42 46 42 48 51 53 54 58 60 61 61 62 63 63 62 63 63 62 63 62 62 64 64 66 66 66 65 62 61 64 65 61 65 59 59 61 60 60 60 59 58 59 59 59 57 59 61 60 62 61 58 58 58 59 59 58 57 56 54 50 46 45
33 28 27 24 22 16 21 18 15 16 16 17 17 18 20 20 20 20 20 18 18 18 18 18 20 22 23 23 24 27 34 36 38 37 32 35 41 40 41 49 51 51 55 58 59 60 61 61 62 61 62 62 63 62 63 62 61 65 66 65 65 63 64 65 65 65 64 63 62 61 60 59 59 59 59 59 59 57 59 56 58 60 61 61 60 59 58 58 58 59 58 57 54 51 48 47 41
30 28 24 26 27 23 21 22 19 18 19 19 20 19 20 21 22 22 21 20 20 19 17 15 15 16 17 19 18 22 24 29 35 36 34 32 33 35 37 38 46 51 50 56 57 60 60 61 61 61 62 62 62 62 62 61 61 61 63 63 62 64 63 64 65 63 64 62 62 61 59 59 59 59 57 56 57 58 58 56 57 58 60 58 58 58 58 57 57 57 56 53 48 47 41 37 40
28 28 26 23 18 25 21 21 22 22 21 20 21 22 21 21 23 24 22 20 18 17 16 14 10 11 15 17 19 18 20 24 29 32 33 32 33 31 31 32 34 44 50 52 56 57 59 60 61 62 62 63 63 62 61 61 61 61 59 60 60 59 60 60 61 62 62 62 61 60 59 59 59 59 59 58 57 56 57 57 58 58 58 58 56 56 55 55 55 53 50 47 40 38 38 37 37
32 29 26 22 20 24 25 22 21 23 26 25 24 23 22 23 25 23 22 20 18 14 12 11 11 13 14 14 17 22 21 23 24 25 28 31 31 29 30 34 34 35 43 49 54 55 58 58 60 61 61 62 62 61 61 61 60 60 60 60 60 60 60 60 60 60 59 61 60 60 59 59 58 57 58 58 57 56 55 55 56 56 56 56 56 55 55 54 52 50 45 39 34 36 37 37 35
26 23 24 23 22 19 20 22 25 28 25 24 23 23 23 23 24 24 22 22 22 21 19 18 17 18 18 18 20 20 25 25 24 25 24 28 30 30 28 28 31 35 40 48 50 53 55 57 58 60 60 61 62 62 61 61 60 60 60 59 60 59 59 60 59 59 59 60 61 61 59 58 58 57 57 57 56 56 55 55 55 55 55 54 55 54 54 53 50 45 38 36 35 37 38 39 38
27 20 19 18 22 25 24 22 27 28 28 25 24 25 24 24 23 23 21 21 23 24 24 23 22 21 20 19 21 21 23 23 23 24 25 24 25 27 31 29 29 33 41 45 48 48 54 55 56 58 59 60 61 61 60 60 59 60 60 59 59 59 59 59 59 59 60 59 61 60 58 58 58 57 57 57 56 55 55 55 55 54 54 54 54 54 53 50 45 38 36 37 37 38 37 36 34
27 23 21 24 24 23 25 24 23 26 28 27 27 26 24 22 21 20 20 20 20 20 21 22 21 20 19 19 20 22 22 23 24 25 25 28 30 32 34 32 33 36 37 40 45 46 49 54 54 56 57 57 59 60 60 59 59 59 60 59 59 58 59 59 59 59 59 59 60 60 58 58 57 57 57 56 56 55 54 55 54 53 55 54 53 51 49 46 39 34 36 37 36 34 35 34 32
17 23 24 24 23 23 24 23 24 27 25 24 24 23 23 21 19 18 19 19 19 19 18 17 17 17 16 17 18 17 17 20 26 25 25 29 30 29 33 33 33 34 36 39 43 47 46 49 53 54 55 56 58 59 60 59 59 59 59 59 59 59 58 59 60 59 58 58 57 60 59 58 57 57 56 55 55 54 54 54 54 53 53 52 51 48 45 41 35 34 35 34 33 33 30 32 30
23 22 22 21 21 19 20 18 18 20 21 21 22 20 19 18 17 17 17 15 16 15 16 16 14 13 14 14 16 17 16 19 20 20 22 26 28 31 34 36 37 35 36 37 39 43 48 46 52 52 54 56 57 58 59 58 58 58 58 59 59 59 59 59 59 58 58 58 58 59 58 58 57 57 56 55 54 53 52 53 52 51 51 49 47 45 42 38 33 32 33 31 32 30 30 29 27
22 20 21 19 18 18 17 17 18 21 19 19 20 19 19 18 18 16 16 15 13 16 17 16 16 15 13 13 13 18 16 19 19 22 24 24 25 28 30 33 35 37 38 38 39 42 45 46 48 51 52 55 56 57 58 58 58 59 59 59 59 60 59 59 59 59 57 57 58 58 58 58 56 56 55 54 53 52 51 51 50 49 49 47 45 43 38 35 33 34 37 35 34 31 29 28 29
20 20 17 16 17 16 16 15 15 17 18 20 19 17 15 16 15 16 18 17 14 14 15 14 13 13 15 15 14 14 14 16 18 19 20 21 24 22 22 27 30 34 37 39 39 43 41 46 46 48 50 53 54 55 57 58 58 58 58 59 59 60 59 59 59 59 58 57 57 58 57 57 56 56 55 54 52 51 50 50 48 48 47 46 44 42 39 37 34 37 38 37 33 32 29 30 34
20 18 17 16 17 16 16 16 18 18 16 19 17 14 16 17 17 17 15 14 14 13 14 13 14 13 13 14 14 16 16 19 19 23 21 22 21 22 26 25 26 27 31 35 40 39 40 45 48 49 50 51 55 54 55 56 57 58 58 58 58 59 59 58 58 58 58 57 57 57 57 57 56 55 54 53 51 50 49 48 48 46 46 45 42 40 36 34 33 35 35 31 32 29 29 30 26
18 17 18 18 17 17 17 16 17 14 18 16 17 17 15 16 16 16 15 15 15 14 14 13 14 12 13 16 16 17 16 18 18 17 23 24 20 22 24 24 26 26 27 33 36 40 38 43 47 45 50 51 54 54 54 55 56 57 57 57 58 58 58 58 57 57 57 57 56 55 56 56 55 55 53 51 50 48 47 46 46 44 44 43 39 39 36 32 31 31 29 26 27 26 28 24 23
17 16 18 20 18 19 19 17 16 16 18 17 16 17 14 15 15 15 15 15 13 13 13 13 14 14 14 15 14 15 16 17 20 21 21 21 23 23 26 25 24 25 27 29 34 39 37 38 46 46 48 50 52 53 54 55 55 56 56 55 57 58 57 57 57 57 56 56 55 55 55 55 54 54 52 51 49 47 45 44 44 43 43 40 39 38 34 29 27 32 28 28 23 26 25 25 24
18 18 22 22 22 20 19 20 17 17 17 17 15 15 15 14 15 15 15 15 15 14 13 14 14 15 15 15 16 17 19 19 22 20 23 26 27 27 26 25 28 28 27 27 30 34 40 38 40 46 46 49 49 52 53 54 54 55 55 55 55 57 56 56 56 56 56 55 54 54 54 54 53 53 51 50 48 47 44 43 42 42 41 39 38 35 32 29 29 34 27 28 28 26 27 27 27
22 23 20 24 21 21 19 19 19 21 16 15 16 14 14 14 15 15 16 16 15 15 15 15 15 15 16 18 17 17 18 21 22 28 28 30 30 29 28 34 32 31 31 29 30 32 33 38 41 45 46 46 48 50 52 53 54 54 54 55 55 55 56 55 55 55 55 54 54 53 54 53 51 52 50 49 48 46 44 42 41 40 39 37 36 34 31 28 31 31 28 30 25 26 24 23 24
20 21 23 21 21 20 20 20 17 16 15 14 15 15 14 15 15 15 15 14 14 14 15 15 15 16 18 18 20 20 23 25 26 26 28 29 30 30 31 33 33 33 30 28 28 30 34 36 39 43 45 45 47 48 51 53 52 52 53 54 54 54 54 54 54 53 53 53 53 53 52 52 50 51 49 48 47 44 42 40 39 40 37 35 35 33 31 29 32 31 30 28 26 26 23 25 23
20 22 21 21 23 22 21 21 21 19 17 16 16 16 15 14 14 14 14 15 16 16 17 17 17 17 18 19 22 23 26 25 27 27 29 30 30 31 31 32 33 33 32 31 33 33 33 35 38 41 43 40 45 46 50 51 51 51 51 52 52 52 52 52 53 52 52 51 52 51 50 51 50 50 48 47 46 43 41 39 37 39 36 34 34 33 28 28 31 31 30 31 29 29 27 24 28
21 23 23 20 21 20 21 20 20 17 17 16 16 15 14 15 15 15 16 17 18 17 17 18 19 20 21 22 23 25 25 26 31 29 29 30 31 30 31 32 31 31 30 32 33 34 33 33 35 38 41 41 42 45 48 49 49 50 50 50 49 50 50 51 51 51 50 50 50 49 49 48 49 48 47 46 45 43 40 39 38 38 34 33 33 32 30 31 32 30 31 30 32 31 30 28 31
21 22 23 21 24 21 21 20 20 18 18 17 15 14 16 16 16 16 17 18 17 17 18 18 17 18 22 23 25 26 26 29 29 28 27 28 29 31 31 31 32 30 31 32 34 33 33 34 35 36 39 39 40 41 45 47 48 48 48 49 49 48 49 48 48 49 49 50 48 48 48 47 47 46 45 46 44 43 40 37 37 36 33 31 32 31 33 32 32 31 32 27 31 28 29 30 29
23 22 23 23 22 23 21 21 21 18 18 16 15 14 15 16 17 18 18 17 18 18 20 20 21 23 24 26 25 26 28 28 27 27 29 28 30 30 30 30 30 30 32 33 34 33 34 34 35 36 37 39 39 39 42 45 47 48 47 47 47 47 48 48 48 47 47 47 46 46 46 46 46 44 44 44 43 42 40 37 36 35 33 31 30 30 31 31 32 32 30 24 24 25 27 32 28
23 23 23 22 25 24 21 19 18 17 17 16 17 16 17 18 19 19 19 17 18 22 22 24 26 24 25 25 26 27 27 28 28 28 28 28 29 29 30 30 30 31 30 31 32 33 33 34 35 36 36 37 38 38 39 43 45 47 48 47 47 46 45 45 46 45 44 44 44 44 44 44 45 44 43 43 42 41 40 37 35 34 32 31 31 28 31 33 31 31 30 25 24 21 24 29 28
27 27 25 23 23 21 20 19 19 19 19 19 18 19 18 20 18 16 16 17 18 21 20 22 26 28 28 30 30 30 28 28 28 28 28 28 28 28 29 30 30 30 31 31 32 32 32 34 35 35 36 36 37 37 39 41 45 46 46 45 44 44 43 42 42 42 42 42 43 42 42 43 43 43 43 41 40 40 39 37 35 33 32 31 29 27 30 31 31 31 30 26 25 21 22 26 29
24 28 26 24 23 21 20 20 20 19 19 20 20 19 20 19 16 14 15 18 18 18 19 20 23 26 27 27 28 29 31 30 29 28 28 28 28 28 28 29 30 30 31 31 31 32 32 33 33 34 35 36 36 37 38 39 40 41 42 41 41 41 40 41 40 40 41 41 41 42 42 41 42 42 42 42 40 39 39 37 37 33 32 30 29 27 27 29 31 30 30 27 27 25 26 24 27
25 22 24 23 21 22 22 21 23 20 18 20 20 19 19 21 21 19 16 18 17 18 18 22 23 24 26 28 29 28 28 29 30 29 28 28 28 27 27 28 29 29 30 32 32 31 30 30 31 33 34 35 37 37 38 37 38 39 40 40 40 40 39 40 40 41 40 40 41 40 40 40 40 40 41 41 41 39 38 38 37 34 31 30 29 25 25 28 30 30 30 28 26 25 27 21 24
22 31 28 24 19 23 25 24 24 20 24 25 22 21 19 20 20 21 19 18 16 17 20 23 23 24 26 26 28 28 29 28 29 28 28 28 27 27 26 27 27 28 29 31 32 32 31 29 30 31 32 33 35 36 37 38 36 38 39 40 39 38 39 39 39 37 39 38 38 39 38 38 39 39 39 40 40 39 37 37 37 35 33 31 29 26 25 28 31 33 32 28 27 23 25 20 21
24 28 29 24 21 24 26 25 24 24 23 23 22 26 21 20 21 19 18 17 16 16 21 22 24 25 26 27 27 28 28 28 27 28 27 27 27 27 26 26 27 28 29 30 30 31 32 31 31 30 30 32 33 34 36 37 37 37 37 37 37 38 38 38 37 37 36 37 37 37 37 36 37 38 38 38 39 39 37 37 37 36 34 32 29 29 26 29 30 31 32 30 27 23 22 23 23
34 30 28 28 30 26 26 22 22 22 19 21 22 24 20 19 21 18 18 17 16 18 21 22 24 26 27 27 28 27 26 28 28 27 27 27 27 27 28 27 27 28 29 31 30 30 30 31 30 30 30 30 31 32 34 35 36 36 36 37 38 38 37 37 37 36 37 37 37 37 36 36 35 35 36 37 38 38 37 36 37 36 35 33 30 29 28 29 31 31 31 28 28 26 22 23 22
30 32 27 25 28 26 24 25 20 21 19 22 24 23 21 17 21 18 21 21 15 18 22 24 26 26 25 26 26 27 25 26 26 26 26 26 27 27 27 27 27 28 29 29 30 29 29 29 30 30 30 30 30 30 31 33 34 35 35 36 36 36 37 37 37 37 36 36 36 36 36 36 35 34 35 35 37 37 37 36 36 36 35 34 32 31 28 28 30 31 32 30 28 28 24 26 24
32 25 24 23 23 22 23 22 23 20 20 24 22 23 21 16 16 20 15 17 16 17 21 23 24 25 26 25 25 25 25 25 25 24 25 26 26 26 27 27 27 27 27 28 29 29 28 27 28 29 30 30 30 30 30 31 31 32 33 34 34 34 34 35 35 35 35 35 36 36 35 35 34 35 34 34 34 36 36 36 36 35 35 34 33 31 28 27 28 29 29 29 27 27 26 25 24
25 22 22 20 19 21 20 20 19 19 20 22 21 24 21 18 15 12 14 15 20 20 22 24 24 24 24 24 24 24 25 24 24 23 24 25 26 26 26 26 27 27 28 28 28 28 27 25 25 26 28 30 30 30 30 30 30 30 31 31 33 33 33 34 34 34 35 34 34 34 34 34 34 35 33 33 34 35 35 35 35 34 34 34 33 33 31 29 29 28 27 28 26 25 24 25 23
22 21 21 20 19 20 20 21 22 21 25 21 20 24 19 18 17 18 15 22 23 25 26 26 25 23 23 24 23 21 24 24 24 23 23 24 25 26 26 26 26 26 26 27 27 27 25 25 24 24 25 27 28 29 29 29 29 29 30 30 30 30 32 32 32 32 32 32 34 33 33 33 33 34 34 34 34 35 35 35 35 34 34 34 34 34 33 31 31 28 28 27 27 25 25 25 24
22 28 23 22 22 22 21 21 20 22 23 20 24 21 20 18 16 23 23 24 26 27 27 27 26 25 24 22 22 20 20 21 22 22 22 22 23 24 25 25 26 26 26 27 26 26 26 24 24 23 24 25 26 27 28 28 29 29 29 29 29 29 30 30 31 32 31 32 33 33 32 33 32 32 33 34 35 35 35 35 35 35 35 34 34 34 34 32 31 29 27 28 27 26 26 24 24
27 28 28 24 23 26 22 23 24 24 23 22 23 19 20 18 22 25 25 25 25 25 24 24 23 22 23 21 21 20 19 19 21 21 21 21 22 23 25 25 25 26 26 26 26 27 27 25 23 23 23 24 25 26 26 26 27 27 27 27 28 28 28 29 30 30 30 31 32 32 32 32 32 32 33 34 36 36 37 36 35 35 35 35 34 33 33 32 32 30 27 26 27 28 25 26 24
27 25 22 23 29 26 26 27 28 27 23 20 24 19 20 18 21 24 24 23 23 23 22 22 21 21 22 22 21 20 20 19 19 20 19 19 20 21 24 24 25 25 26 26 26 27 26 24 23 22 23 23 23 25 26 26 27 27 26 25 26 27 27 28 28 29 29 30 30 31 31 31 32 32 33 35 36 37 37 36 35 34 34 34 34 33 33 32 32 30 28 27 26 26 26 26 25
26 24 25 30 29 29 25 21 22 21 18 19 23 19 17 17 17 23 23 22 22 21 21 21 22 22 21 21 21 21 20 20 18 18 18 19 19 20 22 23 23 24 25 25 25 25 26 25 23 21 21 22 23 23 23 24 26 27 26 25 25 25 25 26 27 27 28 28 28 28 29 31 31 33 33 35 36 36 36 35 35 34 34 34 33 33 33 32 32 30 29 28 26 27 26 24 25
24 25 33 25 23 23 23 22 19 19 19 19 17 18 18 20 19 20 21 21 21 21 21 20 20 20 21 20 20 20 20 20 19 18 19 19 18 19 20 21 23 24 25 25 25 24 23 24 23 20 20 19 20 23 22 23 25 26 27 25 23 24 23 24 26 26 27 27 27 28 29 29 30 31 30 33 34 33 33 34 34 33 32 32 33 32 32 32 31 30 29 28 27 27 25 24 23
30 29 25 32 25 23 22 23 25 24 21 21 21 19 18 24 15 23 22 22 22 21 21 20 20 20 20 21 21 20 20 19 19 18 19 19 19 19 20 22 23 24 24 26 26 24 22 22 20 19 19 19 20 19 19 20 22 22 25 23 23 23 22 22 21 24 23 25 26 27 27 27 28 28 29 30 30 31 31 31 30 30 30 30 30 31 31 31 31 30 28 27 25 26 25 23 23
23 22 21 26 27 28 28 27 24 23 22 21 19 18 20 20 25 24 23 23 22 22 22 22 20 20 20 20 20 20 18 18 18 18 18 18 18 19 21 22 24 25 25 25 25 24 23 23 22 21 19 19 18 19 20 19 18 18 20 21 21 22 22 22 20 21 19 22 24 26 26 27 26 27 27 27 27 28 29 30 30 29 29 29 29 28 29 30 29 28 27 26 26 24 24 23 22
23 22 23 23 23 23 23 21 26 25 22 20 19 18 23 22 26 25 25 25 24 25 23 22 21 20 21 21 20 19 19 17 17 17 17 19 17 18 19 20 22 22 23 22 23 23 22 20 21 23 22 21 20 19 21 21 21 19 19 18 20 21 21 20 19 20 18 21 22 22 24 25 25 26 26 26 26 27 27 27 28 29 29 28 28 29 28 27 27 27 26 28 28 24 23 23 22